カタログに戻る

DELTA 1 DEB

運用中UNKNOWN
NORAD 13533·DEBRIS·🇺🇸 United States

打ち上げ Jul 29, 1976 から Vandenberg Space Force Base

Loading…

次のパス (今後24時間)

TLE

最新Source: Space-Track

元期: Sep 14, 2026, 08:44 UTC

1 13533U 76077EF  26257.36443324  .00000348  00000-0  54308-2 0  9990
2 13533 101.8718 205.9122 0361293 125.8568  26.4159 11.74585362 45786

AllMySatでDELTA 1 DEBをリアルタイム追跡

Download on the App Store